Regional Weather Roundup
Issued by NWS Albany, NY

Home | Current Version | Previous Version | Graphics & Text | Print | Product List | Glossary On
Versions: 1 2 3 4 5 6 7 8 9 10 11 12 13 14 15 16 17 18 19 20 21 22 23 24 25 26 27 28 29 30 31 32 33 34 35 36 37 38 39 40 41 42 43 44 45 46 47 48 49 50
000
ASUS41 KALY 061010
RWRALY

NEW YORK STATE HOURLY WEATHER ROUNDUP
NATIONAL WEATHER SERVICE ALBANY NY
600 AM EDT WED MAY 06 2015

NOTE: "FAIR" INDICATES FEW OR NO CLOUDS BELOW 12,000 FEET WITH NO
SIGNIFICANT WEATHER AND/OR NO OBSTRUCTIONS TO VISIBILITY.

NYZ032-033-038>043-046>054-057>066-NYZ062>081-061100-
EAST


CITY           SKY/WX    TMP DP  RH WIND       PRES   REMARKS
ALBANY         CLOUDY    56  38  50 CALM      30.28R
GLENS FALLS    PTCLDY    44  39  82 CALM      30.28R
POUGHKEEPSIE   CLOUDY    62  42  47 N6        30.25R
NEWBURGH       CLOUDY    63  43  48 NE12      30.25S
MONTGOMERY     CLOUDY    62  42  47 NE12      30.24R
WHITE PLAINS   LGT RAIN  64  37  36 N8        30.22R
ISLIP          CLOUDY    62  50  64 N10       30.20R
NEW YORK CITY  CLOUDY    66  39  37 N5        30.20R
CENTRAL PARK   CLOUDY    68  38  33 VRB7      30.24R
$$

NYZ005>009-017-018-044>046-055-056-061100-
CENTRAL


CITY           SKY/WX    TMP DP  RH WIND       PRES   REMARKS
FULTON         MOCLDY    39  36  89 CALM      30.29S
SYRACUSE       PTCLDY    46  39  76 CALM      30.29R
ROME           PTCLDY    44  40  85 CALM      30.31R
ELMIRA         CLOUDY    53  52  96 W3        30.28F
BINGHAMTON     LGT RAIN  51  50  96 W5        30.28R
MONTICELLO     CLOUDY    52  48  87 W3        30.29R
$$

NYZ026>034-041>043-061100-
NORTH


CITY           SKY/WX    TMP DP  RH WIND       PRES   REMARKS
WATERTOWN      CLEAR     35  34  96 E5        30.29R WCI  31
FORT DRUM      NOT AVBL
MASSENA        CLEAR     37  35  92 CALM      30.30S
SARANAC LAKE   CLEAR     27  26  96 CALM      30.29R
PLATTSBURGH    CLEAR     41  36  82 CALM      30.29R
$$

NYZ001>004-010>016-019>021-061100-
WEST


CITY           SKY/WX    TMP DP  RH WIND       PRES   REMARKS
NIAGARA FALLS  CLOUDY    53  44  71 E8        30.26R
BUFFALO        CLOUDY    55  49  80 NE7       30.26R
DUNKIRK        CLOUDY    54  54 100 NE3       30.25R FOG
JAMESTOWN      CLOUDY    54  52  94 E6        30.25S
WELLSVILLE     LGT RAIN  54  51  90 E8        30.29R FOG
ROCHESTER      MOCLDY    54  37  52 E5        30.29R
PENN YAN       CLOUDY    53  49  86 SW5       30.29S
$$

             KEY
       WCI = WIND CHILL INDEX
       VSB = VISIBILITY
       HX  = HEAT INDEX
$$



USA.gov is the U.S. government's official web portal to all federal, state and local government web resources and services.